datetime,flow
1991-10-01,46.0
1991-10-02,44.0
1991-10-03,41.0
1991-10-04,40.0
1991-10-05,38.0
1991-10-06,38.0
1991-10-07,37.0
1991-10-08,37.0
1991-10-09,37.0
1991-10-10,35.0
1991-10-11,35.0
1991-10-12,34.0
1991-10-13,33.0
1991-10-14,33.0
1991-10-15,32.0
1991-10-16,31.0
1991-10-17,31.0
1991-10-18,31.0
1991-10-19,30.0
1991-10-20,30.0
1991-10-21,30.0
1991-10-22,30.0
1991-10-23,30.0
1991-10-24,31.0
1991-10-25,31.0
1991-10-26,30.0
1991-10-27,30.0
1991-10-28,29.0
1991-10-29,26.0
1991-10-30,29.0
1991-10-31,27.0
1991-11-01,27.0
1991-11-02,27.0
1991-11-03,27.0
1991-11-04,27.0
1991-11-05,27.0
1991-11-06,28.0
1991-11-07,28.0
1991-11-08,27.0
1991-11-09,27.0
1991-11-10,28.0
1991-11-11,27.0
1991-11-12,26.0
1991-11-13,26.0
1991-11-14,27.0
1991-11-15,28.0
1991-11-16,27.0
1991-11-17,27.0
1991-11-18,27.0
1991-11-19,27.0
1991-11-20,26.0
1991-11-21,27.0
1991-11-22,28.0
1991-11-23,28.0
1991-11-24,28.0
1991-11-25,27.0
1991-11-26,27.0
1991-11-27,27.0
1991-11-28,25.0
1991-11-29,27.0
1991-11-30,26.0
1991-12-01,23.0
1991-12-02,22.0
1991-12-03,22.0
1991-12-04,22.0
1991-12-05,22.0
1991-12-06,22.0
1991-12-07,23.0
1991-12-08,23.0
1991-12-09,22.0
1991-12-10,21.0
1991-12-11,21.0
1991-12-12,21.0
1991-12-13,20.0
1991-12-14,18.0
1991-12-15,17.0
1991-12-16,17.0
1991-12-17,18.0
1991-12-18,18.0
1991-12-19,18.0
1991-12-20,18.0
1991-12-21,17.0
1991-12-22,17.0
1991-12-23,17.0
1991-12-24,17.0
1991-12-25,17.0
1991-12-26,16.0
1991-12-27,16.0
1991-12-28,16.0
1991-12-29,16.0
1991-12-30,15.0
1991-12-31,14.0
1992-01-01,12.0
1992-01-02,13.0
1992-01-03,14.0
1992-01-04,14.0
1992-01-05,14.0
1992-01-06,14.0
1992-01-07,15.0
1992-01-08,16.0
1992-01-09,16.0
1992-01-10,14.0
1992-01-11,14.0
1992-01-12,14.0
1992-01-13,14.0
1992-01-14,13.0
1992-01-15,14.0
1992-01-16,14.0
1992-01-17,14.0
1992-01-18,13.0
1992-01-19,13.0
1992-01-20,13.0
1992-01-21,13.0
1992-01-22,13.0
1992-01-23,14.0
1992-01-24,14.0
1992-01-25,14.0
1992-01-26,14.0
1992-01-27,14.0
1992-01-28,13.0
1992-01-29,13.0
1992-01-30,14.0
1992-01-31,14.0
1992-02-01,14.0
1992-02-02,14.0
1992-02-03,15.0
1992-02-04,15.0
1992-02-05,15.0
1992-02-06,15.0
1992-02-07,16.0
1992-02-08,16.0
1992-02-09,16.0
1992-02-10,16.0
1992-02-11,15.0
1992-02-12,15.0
1992-02-13,16.0
1992-02-14,16.0
1992-02-15,16.0
1992-02-16,15.0
1992-02-17,15.0
1992-02-18,15.0
1992-02-19,15.0
1992-02-20,15.0
1992-02-21,15.0
1992-02-22,15.0
1992-02-23,16.0
1992-02-24,16.0
1992-02-25,16.0
1992-02-26,17.0
1992-02-27,18.0
1992-02-28,18.0
1992-02-29,19.0
1992-03-01,19.0
1992-03-02,20.0
1992-03-03,19.0
1992-03-04,18.0
1992-03-05,18.0
1992-03-06,19.0
1992-03-07,19.0
1992-03-08,18.0
1992-03-09,18.0
1992-03-10,17.0
1992-03-11,17.0
1992-03-12,18.0
1992-03-13,20.0
1992-03-14,21.0
1992-03-15,21.0
1992-03-16,21.0
1992-03-17,19.0
1992-03-18,19.0
1992-03-19,18.0
1992-03-20,19.0
1992-03-21,19.0
1992-03-22,19.0
1992-03-23,18.0
1992-03-24,17.0
1992-03-25,17.0
1992-03-26,17.0
1992-03-27,18.0
1992-03-28,18.0
1992-03-29,18.0
1992-03-30,19.0
1992-03-31,19.0
1992-04-01,19.0
1992-04-02,20.0
1992-04-03,21.0
1992-04-04,23.0
1992-04-05,25.0
1992-04-06,27.0
1992-04-07,30.0
1992-04-08,32.0
1992-04-09,37.0
1992-04-10,42.0
1992-04-11,57.0
1992-04-12,76.0
1992-04-13,86.0
1992-04-14,85.0
1992-04-15,77.0
1992-04-16,70.0
1992-04-17,69.0
1992-04-18,77.0
1992-04-19,68.0
1992-04-20,59.0
1992-04-21,57.0
1992-04-22,60.0
1992-04-23,56.0
1992-04-24,57.0
1992-04-25,66.0
1992-04-26,77.0
1992-04-27,98.0
1992-04-28,134.0
1992-04-29,174.0
1992-04-30,213.0
1992-05-01,236.0
1992-05-02,236.0
1992-05-03,231.0
1992-05-04,218.0
1992-05-05,257.0
1992-05-06,284.0
1992-05-07,286.0
1992-05-08,269.0
1992-05-09,275.0
1992-05-10,215.0
1992-05-11,176.0
1992-05-12,175.0
1992-05-13,199.0
1992-05-14,237.0
1992-05-15,273.0
1992-05-16,293.0
1992-05-17,324.0
1992-05-18,334.0
1992-05-19,352.0
1992-05-20,467.0
1992-05-21,450.0
1992-05-22,371.0
1992-05-23,351.0
1992-05-24,375.0
1992-05-25,359.0
1992-05-26,430.0
1992-05-27,463.0
1992-05-28,370.0
1992-05-29,327.0
1992-05-30,311.0
1992-05-31,285.0
1992-06-01,290.0
1992-06-02,289.0
1992-06-03,290.0
1992-06-04,321.0
1992-06-05,403.0
1992-06-06,380.0
1992-06-07,384.0
1992-06-08,341.0
1992-06-09,305.0
1992-06-10,360.0
1992-06-11,416.0
1992-06-12,500.0
1992-06-13,575.0
1992-06-14,531.0
1992-06-15,442.0
1992-06-16,367.0
1992-06-17,313.0
1992-06-18,378.0
1992-06-19,448.0
1992-06-20,495.0
1992-06-21,526.0
1992-06-22,512.0
1992-06-23,486.0
1992-06-24,463.0
1992-06-25,421.0
1992-06-26,407.0
1992-06-27,372.0
1992-06-28,346.0
1992-06-29,370.0
1992-06-30,358.0
1992-07-01,325.0
1992-07-02,262.0
1992-07-03,242.0
1992-07-04,244.0
1992-07-05,257.0
1992-07-06,270.0
1992-07-07,260.0
1992-07-08,251.0
1992-07-09,247.0
1992-07-10,220.0
1992-07-11,200.0
1992-07-12,222.0
1992-07-13,202.0
1992-07-14,173.0
1992-07-15,165.0
1992-07-16,153.0
1992-07-17,143.0
1992-07-18,139.0
1992-07-19,127.0
1992-07-20,119.0
1992-07-21,117.0
1992-07-22,116.0
1992-07-23,151.0
1992-07-24,174.0
1992-07-25,344.0
1992-07-26,230.0
1992-07-27,183.0
1992-07-28,155.0
1992-07-29,139.0
1992-07-30,126.0
1992-07-31,116.0
1992-08-01,106.0
1992-08-02,99.0
1992-08-03,94.0
1992-08-04,92.0
1992-08-05,89.0
1992-08-06,100.0
1992-08-07,100.0
1992-08-08,97.0
1992-08-09,90.0
1992-08-10,87.0
1992-08-11,85.0
1992-08-12,82.0
1992-08-13,79.0
1992-08-14,74.0
1992-08-15,70.0
1992-08-16,71.0
1992-08-17,70.0
1992-08-18,66.0
1992-08-19,62.0
1992-08-20,60.0
1992-08-21,59.0
1992-08-22,64.0
1992-08-23,68.0
1992-08-24,117.0
1992-08-25,102.0
1992-08-26,103.0
1992-08-27,94.0
1992-08-28,90.0
1992-08-29,86.0
1992-08-30,83.0
1992-08-31,82.0
1992-09-01,79.0
1992-09-02,73.0
1992-09-03,67.0
1992-09-04,62.0
1992-09-05,59.0
1992-09-06,58.0
1992-09-07,57.0
1992-09-08,56.0
1992-09-09,54.0
1992-09-10,55.0
1992-09-11,55.0
1992-09-12,53.0
1992-09-13,52.0
1992-09-14,52.0
1992-09-15,59.0
1992-09-16,56.0
1992-09-17,56.0
1992-09-18,54.0
1992-09-19,63.0
1992-09-20,59.0
1992-09-21,56.0
1992-09-22,54.0
1992-09-23,51.0
1992-09-24,50.0
1992-09-25,50.0
1992-09-26,49.0
1992-09-27,47.0
1992-09-28,47.0
1992-09-29,46.0
1992-09-30,46.0
1992-10-01,46.0
1992-10-02,43.0
1992-10-03,40.0
1992-10-04,39.0
1992-10-05,39.0
1992-10-06,40.0
1992-10-07,39.0
1992-10-08,35.0
1992-10-09,33.0
1992-10-10,32.0
1992-10-11,32.0
1992-10-12,31.0
1992-10-13,30.0
1992-10-14,30.0
1992-10-15,31.0
1992-10-16,31.0
1992-10-17,31.0
1992-10-18,31.0
1992-10-19,31.0
1992-10-20,31.0
1992-10-21,31.0
1992-10-22,31.0
1992-10-23,31.0
1992-10-24,31.0
1992-10-25,32.0
1992-10-26,31.0
1992-10-27,30.0
1992-10-28,30.0
1992-10-29,31.0
1992-10-30,30.0
1992-10-31,31.0
1992-11-01,29.0
1992-11-02,28.0
1992-11-03,28.0
1992-11-04,28.0
1992-11-05,28.0
1992-11-06,28.0
1992-11-07,28.0
1992-11-08,28.0
1992-11-09,29.0
1992-11-10,30.0
1992-11-11,30.0
1992-11-12,28.0
1992-11-13,27.0
1992-11-14,27.0
1992-11-15,28.0
1992-11-16,28.0
1992-11-17,29.0
1992-11-18,29.0
1992-11-19,29.0
1992-11-20,28.0
1992-11-21,28.0
1992-11-22,27.0
1992-11-23,26.0
1992-11-24,25.0
1992-11-25,24.0
1992-11-26,24.0
1992-11-27,21.0
1992-11-28,22.0
1992-11-29,23.0
1992-11-30,23.0
1992-12-01,23.0
1992-12-02,23.0
1992-12-03,24.0
1992-12-04,23.0
1992-12-05,23.0
1992-12-06,22.0
1992-12-07,21.0
1992-12-08,21.0
1992-12-09,21.0
1992-12-10,21.0
1992-12-11,21.0
1992-12-12,21.0
1992-12-13,21.0
1992-12-14,20.0
1992-12-15,19.0
1992-12-16,18.0
1992-12-17,18.0
1992-12-18,18.0
1992-12-19,17.0
1992-12-20,17.0
1992-12-21,17.0
1992-12-22,18.0
1992-12-23,17.0
1992-12-24,17.0
1992-12-25,16.0
1992-12-26,16.0
1992-12-27,16.0
1992-12-28,17.0
1992-12-29,17.0
1992-12-30,17.0
1992-12-31,17.0
1993-01-01,17.0
1993-01-02,17.0
1993-01-03,16.0
1993-01-04,14.0
1993-01-05,15.0
1993-01-06,16.0
1993-01-07,17.0
1993-01-08,17.0
1993-01-09,17.0
1993-01-10,17.0
1993-01-11,17.0
1993-01-12,16.0
1993-01-13,16.0
1993-01-14,16.0
1993-01-15,17.0
1993-01-16,17.0
1993-01-17,17.0
1993-01-18,17.0
1993-01-19,17.0
1993-01-20,17.0
1993-01-21,16.0
1993-01-22,16.0
1993-01-23,15.0
1993-01-24,15.0
1993-01-25,16.0
1993-01-26,16.0
1993-01-27,16.0
1993-01-28,16.0
1993-01-29,16.0
1993-01-30,16.0
1993-01-31,17.0
1993-02-01,17.0
1993-02-02,16.0
1993-02-03,16.0
1993-02-04,16.0
1993-02-05,15.0
1993-02-06,16.0
1993-02-07,16.0
1993-02-08,16.0
1993-02-09,17.0
1993-02-10,17.0
1993-02-11,17.0
1993-02-12,17.0
1993-02-13,16.0
1993-02-14,16.0
1993-02-15,16.0
1993-02-16,16.0
1993-02-17,16.0
1993-02-18,16.0
1993-02-19,17.0
1993-02-20,20.0
1993-02-21,19.0
1993-02-22,17.0
1993-02-23,16.0
1993-02-24,16.0
1993-02-25,16.0
1993-02-26,16.0
1993-02-27,16.0
1993-02-28,17.0
1993-03-01,17.0
1993-03-02,17.0
1993-03-03,16.0
1993-03-04,16.0
1993-03-05,17.0
1993-03-06,18.0
1993-03-07,19.0
1993-03-08,21.0
1993-03-09,22.0
1993-03-10,22.0
1993-03-11,21.0
1993-03-12,20.0
1993-03-13,18.0
1993-03-14,18.0
1993-03-15,19.0
1993-03-16,20.0
1993-03-17,21.0
1993-03-18,23.0
1993-03-19,23.0
1993-03-20,24.0
1993-03-21,24.0
1993-03-22,24.0
1993-03-23,24.0
1993-03-24,25.0
1993-03-25,26.0
1993-03-26,28.0
1993-03-27,28.0
1993-03-28,26.0
1993-03-29,24.0
1993-03-30,24.0
1993-03-31,24.0
1993-04-01,24.0
1993-04-02,24.0
1993-04-03,24.0
1993-04-04,24.0
1993-04-05,24.0
1993-04-06,24.0
1993-04-07,23.0
1993-04-08,23.0
1993-04-09,23.0
1993-04-10,24.0
1993-04-11,25.0
1993-04-12,26.0
1993-04-13,26.0
1993-04-14,27.0
1993-04-15,28.0
1993-04-16,30.0
1993-04-17,33.0
1993-04-18,37.0
1993-04-19,36.0
1993-04-20,34.0
1993-04-21,39.0
1993-04-22,44.0
1993-04-23,51.0
1993-04-24,50.0
1993-04-25,46.0
1993-04-26,54.0
1993-04-27,70.0
1993-04-28,84.0
1993-04-29,98.0
1993-04-30,113.0
1993-05-01,111.0
1993-05-02,107.0
1993-05-03,111.0
1993-05-04,128.0
1993-05-05,136.0
1993-05-06,113.0
1993-05-07,105.0
1993-05-08,93.0
1993-05-09,83.0
1993-05-10,84.0
1993-05-11,108.0
1993-05-12,165.0
1993-05-13,259.0
1993-05-14,383.0
1993-05-15,447.0
1993-05-16,423.0
1993-05-17,390.0
1993-05-18,359.0
1993-05-19,443.0
1993-05-20,498.0
1993-05-21,663.0
1993-05-22,624.0
1993-05-23,465.0
1993-05-24,501.0
1993-05-25,610.0
1993-05-26,767.0
1993-05-27,830.0
1993-05-28,696.0
1993-05-29,609.0
1993-05-30,688.0
1993-05-31,878.0
1993-06-01,836.0
1993-06-02,707.0
1993-06-03,567.0
1993-06-04,354.0
1993-06-05,282.0
1993-06-06,296.0
1993-06-07,228.0
1993-06-08,164.0
1993-06-09,137.0
1993-06-10,137.0
1993-06-11,201.0
1993-06-12,422.0
1993-06-13,763.0
1993-06-14,923.0
1993-06-15,965.0
1993-06-16,982.0
1993-06-17,856.0
1993-06-18,556.0
1993-06-19,552.0
1993-06-20,757.0
1993-06-21,864.0
1993-06-22,891.0
1993-06-23,887.0
1993-06-24,805.0
1993-06-25,718.0
1993-06-26,734.0
1993-06-27,735.0
1993-06-28,684.0
1993-06-29,760.0
1993-06-30,777.0
1993-07-01,684.0
1993-07-02,700.0
1993-07-03,650.0
1993-07-04,488.0
1993-07-05,343.0
1993-07-06,377.0
1993-07-07,448.0
1993-07-08,463.0
1993-07-09,410.0
1993-07-10,388.0
1993-07-11,383.0
1993-07-12,392.0
1993-07-13,372.0
1993-07-14,360.0
1993-07-15,354.0
1993-07-16,328.0
1993-07-17,291.0
1993-07-18,278.0
1993-07-19,253.0
1993-07-20,241.0
1993-07-21,231.0
1993-07-22,206.0
1993-07-23,194.0
1993-07-24,184.0
1993-07-25,170.0
1993-07-26,176.0
1993-07-27,168.0
1993-07-28,159.0
1993-07-29,155.0
1993-07-30,176.0
1993-07-31,157.0
1993-08-01,143.0
1993-08-02,136.0
1993-08-03,125.0
1993-08-04,117.0
1993-08-05,139.0
1993-08-06,120.0
1993-08-07,109.0
1993-08-08,113.0
1993-08-09,113.0
1993-08-10,123.0
1993-08-11,114.0
1993-08-12,102.0
1993-08-13,99.0
1993-08-14,105.0
1993-08-15,97.0
1993-08-16,88.0
1993-08-17,84.0
1993-08-18,78.0
1993-08-19,77.0
1993-08-20,77.0
1993-08-21,107.0
1993-08-22,106.0
1993-08-23,90.0
1993-08-24,81.0
1993-08-25,76.0
1993-08-26,83.0
1993-08-27,91.0
1993-08-28,182.0
1993-08-29,366.0
1993-08-30,305.0
1993-08-31,245.0
1993-09-01,210.0
1993-09-02,183.0
1993-09-03,155.0
1993-09-04,136.0
1993-09-05,124.0
1993-09-06,114.0
1993-09-07,110.0
1993-09-08,100.0
1993-09-09,96.0
1993-09-10,93.0
1993-09-11,85.0
1993-09-12,80.0
1993-09-13,96.0
1993-09-14,87.0
1993-09-15,84.0
1993-09-16,86.0
1993-09-17,84.0
1993-09-18,83.0
1993-09-19,79.0
1993-09-20,71.0
1993-09-21,66.0
1993-09-22,62.0
1993-09-23,59.0
1993-09-24,56.0
1993-09-25,54.0
1993-09-26,52.0
1993-09-27,50.0
1993-09-28,48.0
1993-09-29,46.0
1993-09-30,45.0
1993-10-01,
1993-10-02,
1993-10-03,
1993-10-04,
1993-10-05,
1993-10-06,
1993-10-07,
1993-10-08,
1993-10-09,
1993-10-10,
1993-10-11,
1993-10-12,
1993-10-13,
1993-10-14,
1993-10-15,
1993-10-16,
1993-10-17,
1993-10-18,
1993-10-19,
1993-10-20,
1993-10-21,
1993-10-22,
1993-10-23,
1993-10-24,
1993-10-25,
1993-10-26,
1993-10-27,
1993-10-28,
1993-10-29,
1993-10-30,
1993-10-31,
1993-11-01,
1993-11-02,
1993-11-03,
1993-11-04,
1993-11-05,
1993-11-06,
1993-11-07,
1993-11-08,
1993-11-09,
1993-11-10,
1993-11-11,
1993-11-12,
1993-11-13,
1993-11-14,
1993-11-15,
1993-11-16,
1993-11-17,
1993-11-18,
1993-11-19,
1993-11-20,
1993-11-21,
1993-11-22,
1993-11-23,
1993-11-24,
1993-11-25,
1993-11-26,
1993-11-27,
1993-11-28,
1993-11-29,
1993-11-30,
1993-12-01,
1993-12-02,
1993-12-03,
1993-12-04,
1993-12-05,
1993-12-06,
1993-12-07,
1993-12-08,
1993-12-09,
1993-12-10,
1993-12-11,
1993-12-12,
1993-12-13,
1993-12-14,
1993-12-15,
1993-12-16,
1993-12-17,
1993-12-18,
1993-12-19,
1993-12-20,
1993-12-21,
1993-12-22,
1993-12-23,
1993-12-24,
1993-12-25,
1993-12-26,
1993-12-27,
1993-12-28,
1993-12-29,
1993-12-30,
1993-12-31,
1994-01-01,
1994-01-02,
1994-01-03,
1994-01-04,
1994-01-05,
1994-01-06,
1994-01-07,
1994-01-08,
1994-01-09,
1994-01-10,
1994-01-11,
1994-01-12,
1994-01-13,
1994-01-14,
1994-01-15,
1994-01-16,
1994-01-17,
1994-01-18,
1994-01-19,
1994-01-20,
1994-01-21,
1994-01-22,
1994-01-23,
1994-01-24,
1994-01-25,
1994-01-26,
1994-01-27,
1994-01-28,
1994-01-29,
1994-01-30,
1994-01-31,
1994-02-01,
1994-02-02,
1994-02-03,
1994-02-04,
1994-02-05,
1994-02-06,
1994-02-07,
1994-02-08,
1994-02-09,
1994-02-10,
1994-02-11,
1994-02-12,
1994-02-13,
1994-02-14,
1994-02-15,
1994-02-16,
1994-02-17,
1994-02-18,
1994-02-19,
1994-02-20,
1994-02-21,
1994-02-22,
1994-02-23,
1994-02-24,
1994-02-25,
1994-02-26,
1994-02-27,
1994-02-28,
1994-03-01,
1994-03-02,
1994-03-03,
1994-03-04,
1994-03-05,
1994-03-06,
1994-03-07,
1994-03-08,
1994-03-09,
1994-03-10,
1994-03-11,
1994-03-12,
1994-03-13,
1994-03-14,
1994-03-15,
1994-03-16,
1994-03-17,
1994-03-18,
1994-03-19,
1994-03-20,
1994-03-21,
1994-03-22,
1994-03-23,
1994-03-24,
1994-03-25,
1994-03-26,
1994-03-27,
1994-03-28,
1994-03-29,
1994-03-30,
1994-03-31,
1994-04-01,
1994-04-02,
1994-04-03,
1994-04-04,
1994-04-05,
1994-04-06,
1994-04-07,
1994-04-08,
1994-04-09,
1994-04-10,
1994-04-11,
1994-04-12,
1994-04-13,
1994-04-14,
1994-04-15,
1994-04-16,
1994-04-17,
1994-04-18,
1994-04-19,
1994-04-20,
1994-04-21,
1994-04-22,
1994-04-23,
1994-04-24,
1994-04-25,
1994-04-26,
1994-04-27,
1994-04-28,
1994-04-29,
1994-04-30,
1994-05-01,
1994-05-02,
1994-05-03,
1994-05-04,
1994-05-05,
1994-05-06,
1994-05-07,
1994-05-08,
1994-05-09,
1994-05-10,
1994-05-11,
1994-05-12,
1994-05-13,
1994-05-14,
1994-05-15,
1994-05-16,
1994-05-17,
1994-05-18,
1994-05-19,
1994-05-20,
1994-05-21,
1994-05-22,
1994-05-23,
1994-05-24,
1994-05-25,
1994-05-26,
1994-05-27,
1994-05-28,
1994-05-29,
1994-05-30,
1994-05-31,
1994-06-01,
1994-06-02,
1994-06-03,
1994-06-04,
1994-06-05,
1994-06-06,
1994-06-07,
1994-06-08,
1994-06-09,
1994-06-10,
1994-06-11,
1994-06-12,
1994-06-13,
1994-06-14,
1994-06-15,
1994-06-16,
1994-06-17,
1994-06-18,
1994-06-19,
1994-06-20,
1994-06-21,
1994-06-22,
1994-06-23,
1994-06-24,
1994-06-25,
1994-06-26,
1994-06-27,
1994-06-28,
1994-06-29,
1994-06-30,
1994-07-01,
1994-07-02,
1994-07-03,
1994-07-04,
1994-07-05,
1994-07-06,
1994-07-07,
1994-07-08,
1994-07-09,
1994-07-10,
1994-07-11,
1994-07-12,
1994-07-13,
1994-07-14,
1994-07-15,
1994-07-16,
1994-07-17,
1994-07-18,
1994-07-19,
1994-07-20,
1994-07-21,
1994-07-22,
1994-07-23,
1994-07-24,
1994-07-25,
1994-07-26,
1994-07-27,
1994-07-28,
1994-07-29,
1994-07-30,
1994-07-31,
1994-08-01,
1994-08-02,
1994-08-03,
1994-08-04,
1994-08-05,
1994-08-06,
1994-08-07,
1994-08-08,
1994-08-09,
1994-08-10,
1994-08-11,
1994-08-12,
1994-08-13,
1994-08-14,
1994-08-15,
1994-08-16,
1994-08-17,
1994-08-18,
1994-08-19,
1994-08-20,
1994-08-21,
1994-08-22,
1994-08-23,
1994-08-24,
1994-08-25,
1994-08-26,
1994-08-27,
1994-08-28,
1994-08-29,
1994-08-30,
1994-08-31,
1994-09-01,
1994-09-02,
1994-09-03,
1994-09-04,
1994-09-05,
1994-09-06,
1994-09-07,
1994-09-08,
1994-09-09,
1994-09-10,
1994-09-11,
1994-09-12,
1994-09-13,
1994-09-14,
1994-09-15,
1994-09-16,
1994-09-17,
1994-09-18,
1994-09-19,
1994-09-20,
1994-09-21,
1994-09-22,
1994-09-23,
1994-09-24,
1994-09-25,
1994-09-26,
1994-09-27,
1994-09-28,
1994-09-29,
1994-09-30,
1994-10-01,100.0
1994-10-02,97.0
1994-10-03,88.0
1994-10-04,88.0
1994-10-05,92.0
1994-10-06,94.0
1994-10-07,90.0
1994-10-08,86.0
1994-10-09,84.0
1994-10-10,80.0
1994-10-11,78.0
1994-10-12,78.0
1994-10-13,74.0
1994-10-14,73.0
1994-10-15,72.0
1994-10-16,72.0
1994-10-17,71.0
1994-10-18,70.0
1994-10-19,69.0
1994-10-20,68.0
1994-10-21,66.0
1994-10-22,65.0
1994-10-23,64.0
1994-10-24,64.0
1994-10-25,63.0
1994-10-26,60.0
1994-10-27,59.0
1994-10-28,57.0
1994-10-29,57.0
1994-10-30,56.0
1994-10-31,53.0
1994-11-01,51.0
1994-11-02,51.0
1994-11-03,50.0
1994-11-04,47.0
1994-11-05,46.0
1994-11-06,48.0
1994-11-07,49.0
1994-11-08,48.0
1994-11-09,49.0
1994-11-10,45.0
1994-11-11,46.0
1994-11-12,48.0
1994-11-13,48.0
1994-11-14,47.0
1994-11-15,44.0
1994-11-16,44.0
1994-11-17,45.0
1994-11-18,45.0
1994-11-19,45.0
1994-11-20,45.0
1994-11-21,45.0
1994-11-22,42.0
1994-11-23,40.0
1994-11-24,40.0
1994-11-25,39.0
1994-11-26,40.0
1994-11-27,40.0
1994-11-28,39.0
1994-11-29,38.0
1994-11-30,39.0
1994-12-01,41.0
1994-12-02,41.0
1994-12-03,40.0
1994-12-04,43.0
1994-12-05,42.0
1994-12-06,42.0
1994-12-07,41.0
1994-12-08,40.0
1994-12-09,38.0
1994-12-10,35.0
1994-12-11,31.0
1994-12-12,32.0
1994-12-13,33.0
1994-12-14,34.0
1994-12-15,33.0
1994-12-16,34.0
1994-12-17,34.0
1994-12-18,34.0
1994-12-19,34.0
1994-12-20,35.0
1994-12-21,34.0
1994-12-22,33.0
1994-12-23,34.0
1994-12-24,34.0
1994-12-25,34.0
1994-12-26,34.0
1994-12-27,34.0
1994-12-28,33.0
1994-12-29,33.0
1994-12-30,34.0
1994-12-31,34.0
1995-01-01,34.0
1995-01-02,32.0
1995-01-03,34.0
1995-01-04,33.0
1995-01-05,33.0
1995-01-06,33.0
1995-01-07,33.0
1995-01-08,33.0
1995-01-09,34.0
1995-01-10,35.0
1995-01-11,35.0
1995-01-12,35.0
1995-01-13,35.0
1995-01-14,35.0
1995-01-15,35.0
1995-01-16,34.0
1995-01-17,33.0
1995-01-18,32.0
1995-01-19,34.0
1995-01-20,36.0
1995-01-21,34.0
1995-01-22,34.0
1995-01-23,36.0
1995-01-24,34.0
1995-01-25,34.0
1995-01-26,33.0
1995-01-27,34.0
1995-01-28,34.0
1995-01-29,33.0
1995-01-30,33.0
1995-01-31,32.0
1995-02-01,34.0
1995-02-02,35.0
1995-02-03,35.0
1995-02-04,35.0
1995-02-05,35.0
1995-02-06,35.0
1995-02-07,36.0
1995-02-08,36.0
1995-02-09,36.0
1995-02-10,35.0
1995-02-11,35.0
1995-02-12,34.0
1995-02-13,33.0
1995-02-14,35.0
1995-02-15,34.0
1995-02-16,32.0
1995-02-17,32.0
1995-02-18,32.0
1995-02-19,32.0
1995-02-20,33.0
1995-02-21,36.0
1995-02-22,39.0
1995-02-23,41.0
1995-02-24,42.0
1995-02-25,43.0
1995-02-26,43.0
1995-02-27,42.0
1995-02-28,41.0
1995-03-01,41.0
1995-03-02,41.0
1995-03-03,41.0
1995-03-04,41.0
1995-03-05,41.0
1995-03-06,41.0
1995-03-07,40.0
1995-03-08,37.0
1995-03-09,37.0
1995-03-10,41.0
1995-03-11,47.0
1995-03-12,53.0
1995-03-13,48.0
1995-03-14,44.0
1995-03-15,44.0
1995-03-16,47.0
1995-03-17,53.0
1995-03-18,50.0
1995-03-19,50.0
1995-03-20,48.0
1995-03-21,46.0
1995-03-22,46.0
1995-03-23,47.0
1995-03-24,45.0
1995-03-25,44.0
1995-03-26,41.0
1995-03-27,40.0
1995-03-28,39.0
1995-03-29,37.0
1995-03-30,37.0
1995-03-31,36.0
1995-04-01,35.0
1995-04-02,35.0
1995-04-03,35.0
1995-04-04,37.0
1995-04-05,41.0
1995-04-06,48.0
1995-04-07,56.0
1995-04-08,63.0
1995-04-09,72.0
1995-04-10,68.0
1995-04-11,60.0
1995-04-12,52.0
1995-04-13,55.0
1995-04-14,61.0
1995-04-15,60.0
1995-04-16,56.0
1995-04-17,54.0
1995-04-18,50.0
1995-04-19,50.0
1995-04-20,47.0
1995-04-21,44.0
1995-04-22,42.0
1995-04-23,41.0
1995-04-24,40.0
1995-04-25,40.0
1995-04-26,43.0
1995-04-27,46.0
1995-04-28,50.0
1995-04-29,57.0
1995-04-30,63.0
1995-05-01,56.0
1995-05-02,60.0
1995-05-03,58.0
1995-05-04,60.0
1995-05-05,67.0
1995-05-06,61.0
1995-05-07,61.0
1995-05-08,57.0
1995-05-09,56.0
1995-05-10,60.0
1995-05-11,64.0
1995-05-12,71.0
1995-05-13,65.0
1995-05-14,70.0
1995-05-15,108.0
1995-05-16,149.0
1995-05-17,144.0
1995-05-18,138.0
1995-05-19,163.0
1995-05-20,233.0
1995-05-21,306.0
1995-05-22,393.0
1995-05-23,403.0
1995-05-24,336.0
1995-05-25,263.0
1995-05-26,213.0
1995-05-27,188.0
1995-05-28,176.0
1995-05-29,168.0
1995-05-30,151.0
1995-05-31,154.0
1995-06-01,232.0
1995-06-02,375.0
1995-06-03,439.0
1995-06-04,431.0
1995-06-05,497.0
1995-06-06,647.0
1995-06-07,560.0
1995-06-08,454.0
1995-06-09,435.0
1995-06-10,426.0
1995-06-11,562.0
1995-06-12,909.0
1995-06-13,1020.0
1995-06-14,1090.0
1995-06-15,1100.0
1995-06-16,946.0
1995-06-17,988.0
1995-06-18,754.0
1995-06-19,706.0
1995-06-20,916.0
1995-06-21,1050.0
1995-06-22,1090.0
1995-06-23,1070.0
1995-06-24,1060.0
1995-06-25,1110.0
1995-06-26,1100.0
1995-06-27,995.0
1995-06-28,803.0
1995-06-29,859.0
1995-06-30,872.0
1995-07-01,820.0
1995-07-02,695.0
1995-07-03,656.0
1995-07-04,466.0
1995-07-05,388.0
1995-07-06,533.0
1995-07-07,729.0
1995-07-08,804.0
1995-07-09,990.0
1995-07-10,1080.0
1995-07-11,1100.0
1995-07-12,1170.0
1995-07-13,1050.0
1995-07-14,898.0
1995-07-15,856.0
1995-07-16,939.0
1995-07-17,834.0
1995-07-18,759.0
1995-07-19,865.0
1995-07-20,866.0
1995-07-21,763.0
1995-07-22,647.0
1995-07-23,583.0
1995-07-24,555.0
1995-07-25,571.0
1995-07-26,585.0
1995-07-27,552.0
1995-07-28,538.0
1995-07-29,532.0
1995-07-30,490.0
1995-07-31,455.0
1995-08-01,436.0
1995-08-02,399.0
1995-08-03,353.0
1995-08-04,320.0
1995-08-05,325.0
1995-08-06,307.0
1995-08-07,280.0
1995-08-08,290.0
1995-08-09,281.0
1995-08-10,291.0
1995-08-11,317.0
1995-08-12,297.0
1995-08-13,278.0
1995-08-14,245.0
1995-08-15,219.0
1995-08-16,194.0
1995-08-17,184.0
1995-08-18,187.0
1995-08-19,193.0
1995-08-20,265.0
1995-08-21,221.0
1995-08-22,216.0
1995-08-23,209.0
1995-08-24,190.0
1995-08-25,187.0
1995-08-26,207.0
1995-08-27,239.0
1995-08-28,214.0
1995-08-29,184.0
1995-08-30,163.0
1995-08-31,147.0
1995-09-01,136.0
1995-09-02,129.0
1995-09-03,121.0
1995-09-04,113.0
1995-09-05,110.0
1995-09-06,110.0
1995-09-07,110.0
1995-09-08,120.0
1995-09-09,122.0
1995-09-10,113.0
1995-09-11,104.0
1995-09-12,97.0
1995-09-13,91.0
1995-09-14,86.0
1995-09-15,81.0
1995-09-16,77.0
1995-09-17,74.0
1995-09-18,73.0
1995-09-19,68.0
1995-09-20,66.0
1995-09-21,65.0
1995-09-22,60.0
1995-09-23,57.0
1995-09-24,56.0
1995-09-25,53.0
1995-09-26,55.0
1995-09-27,53.0
1995-09-28,63.0
1995-09-29,81.0
1995-09-30,78.0
1995-10-01,77.0
1995-10-02,70.0
1995-10-03,68.0
1995-10-04,63.0
1995-10-05,59.0
1995-10-06,55.0
1995-10-07,59.0
1995-10-08,58.0
1995-10-09,57.0
1995-10-10,56.0
1995-10-11,57.0
1995-10-12,56.0
1995-10-13,55.0
1995-10-14,52.0
1995-10-15,53.0
1995-10-16,51.0
1995-10-17,49.0
1995-10-18,48.0
1995-10-19,47.0
1995-10-20,45.0
1995-10-21,45.0
1995-10-22,45.0
1995-10-23,45.0
1995-10-24,43.0
1995-10-25,42.0
1995-10-26,42.0
1995-10-27,42.0
1995-10-28,42.0
1995-10-29,42.0
1995-10-30,41.0
1995-10-31,40.0
1995-11-01,43.0
1995-11-02,40.0
1995-11-03,40.0
1995-11-04,38.0
1995-11-05,37.0
1995-11-06,36.0
1995-11-07,37.0
1995-11-08,36.0
1995-11-09,36.0
1995-11-10,37.0
1995-11-11,36.0
1995-11-12,36.0
1995-11-13,35.0
1995-11-14,36.0
1995-11-15,35.0
1995-11-16,34.0
1995-11-17,34.0
1995-11-18,33.0
1995-11-19,33.0
1995-11-20,34.0
1995-11-21,35.0
1995-11-22,33.0
1995-11-23,32.0
1995-11-24,34.0
1995-11-25,34.0
1995-11-26,32.0
1995-11-27,32.0
1995-11-28,32.0
1995-11-29,32.0
1995-11-30,32.0
1995-12-01,31.0
1995-12-02,31.0
1995-12-03,31.0
1995-12-04,32.0
1995-12-05,32.0
1995-12-06,32.0
1995-12-07,31.0
1995-12-08,30.0
1995-12-09,29.0
1995-12-10,30.0
1995-12-11,32.0
1995-12-12,30.0
1995-12-13,31.0
1995-12-14,31.0
1995-12-15,29.0
1995-12-16,25.0
1995-12-17,25.0
1995-12-18,25.0
1995-12-19,25.0
1995-12-20,24.0
1995-12-21,24.0
1995-12-22,24.0
1995-12-23,24.0
1995-12-24,23.0
1995-12-25,23.0
1995-12-26,22.0
1995-12-27,23.0
1995-12-28,24.0
1995-12-29,25.0
1995-12-30,27.0
1995-12-31,29.0
1996-01-01,30.0
1996-01-02,28.0
1996-01-03,28.0
1996-01-04,29.0
1996-01-05,30.0
1996-01-06,30.0
1996-01-07,28.0
1996-01-08,28.0
1996-01-09,29.0
1996-01-10,30.0
1996-01-11,31.0
1996-01-12,31.0
1996-01-13,30.0
1996-01-14,30.0
1996-01-15,31.0